EW5657 Weather Reports


Display with metric or nautical units.
time (UTC)temp
F
wind
direction
speed
MPH
gust
MPH
rain 1hr
in
rain 24hr
in
rain mn
in
humidity
%
barometer
mb
20260901042058 71 340 12.0 26.0 0.00 0.00 0.00 45 1014.3
20260901041558 72 295 11.0 21.0 0.00 0.00 0.00 45 1014.5
20260901041101 71 323 13.0 23.0 0.00 0.00 0.00 45 1014.7
20260901041056 71 331 11.0 23.0 0.00 0.00 0.00 46 1014.7
20260901040052 72 276 11.0 23.0 0.00 0.00 0.00 45 1014.9
20260901035553 72 330 10.0 22.0 0.00 0.00 0.00 44 1015.0
20260901035055 71 322 11.0 28.0 0.00 0.00 0.00 45 1015.3
20260901035050 71 299 10.0 22.0 0.00 0.00 0.00 44 1015.1
20260901034052 71 274 11.0 28.0 0.00 0.00 0.00 45 1015.5
20260901033550 71 288 12.0 24.0 0.00 0.00 0.00 45 1015.5
20260901033049 71 295 12.0 24.0 0.00 0.00 0.00 44 1015.7
20260901032553 71 331 11.0 26.0 0.00 0.00 0.00 44 1015.9
20260901032052 71 316 12.0 26.0 0.00 0.00 0.00 43 1015.9
20260901031557 71 280 11.0 31.0 0.00 0.00 0.00 43 1016.0
20260901031551 71 318 13.0 31.0 0.00 0.00 0.00 44 1015.9
20260901030549 72 254 8.0 25.0 0.00 0.00 0.00 43 1016.0
20260901030048 72 243 9.0 25.0 0.00 0.00 0.00 43 1016.2
20260901025554 71 329 11.0 22.0 0.00 0.00 0.00 44 1016.4
20260901025548 71 320 10.0 19.0 0.00 0.00 0.00 43 1016.1
20260901024548 71 0 12.0 30.0 0.00 0.00 0.00 44 1016.5
20260901024047 71 311 11.0 30.0 0.00 0.00 0.00 43 1016.7
20260901023550 71 341 9.0 23.0 0.00 0.00 0.00 44 1016.7
20260901023048 71 325 9.0 23.0 0.00 0.00 0.00 44 1016.8
20260901022549 71 326 10.0 20.0 0.00 0.00 0.00 44 1016.9
20260901022047 71 12 10.0 20.0 0.00 0.00 0.00 45 1017.0
20260901021549 71 1 9.0 22.0 0.00 0.00 0.00 47 1017.1
20260901021048 71 351 7.0 22.0 0.00 0.00 0.00 47 1017.1
20260901020548 70 305 7.0 19.0 0.00 0.00 0.00 50 1017.2
20260901020048 70 338 8.0 16.0 0.00 0.00 0.00 50 1017.3
20260901015547 69 0 8.0 15.0 0.00 0.00 0.00 51 1017.6
20260901015048 69 15 8.0 17.0 0.00 0.00 0.00 52 1017.6
20260901014549 69 358 8.0 17.0 0.00 0.00 0.00 52 1017.7
20260901014045 69 358 8.0 19.0 0.00 0.00 0.00 52 1017.7
20260901013546 69 11 10.0 25.0 0.00 0.00 0.00 52 1017.8
20260901013045 68 350 10.0 28.0 0.00 0.00 0.00 52 1017.6
20260901012553 68 329 8.0 20.0 0.00 0.00 0.00 54 1017.7
20260901012547 68 19 9.0 28.0 0.00 0.00 0.00 53 1017.7
20260901011547 67 354 8.0 20.0 0.00 0.00 0.00 55 1017.8
20260901011046 67 352 10.0 22.0 0.00 0.00 0.00 55 1017.9
20260901010545 66 27 10.0 22.0 0.00 0.00 0.00 56 1017.9
20260901010047 66 20 10.0 20.0 0.00 0.00 0.00 56 1017.9
20260901005543 66 17 11.0 27.0 0.00 0.00 0.00 58 1018.0
20260901005044 65 338 11.0 27.0 0.00 0.00 0.00 58 1018.2
20260901004541 65 18 10.0 19.0 0.00 0.00 0.00 59 1018.1
20260901004043 65 348 11.0 21.0 0.00 0.00 0.00 61 1018.6
20260901003543 65 12 10.0 21.0 0.00 0.00 0.00 61 1018.7
20260901003039 65 23 9.0 25.0 0.00 0.00 0.00 62 1018.9
20260901002547 64 48 11.0 25.0 0.00 0.00 0.00 62 1019.2
20260901002541 65 299 11.0 25.0 0.00 0.00 0.00 62 1019.0
20260901001539 64 299 11.0 25.0 0.00 0.00 0.00 62 1019.3
20260901001046 64 358 11.0 23.0 0.00 0.00 0.00 64 1019.3
20260901001041 64 355 12.0 24.0 0.00 0.00 0.00 63 1019.2
20260901000537 64 19 12.0 23.0 0.00 0.00 0.00 63 1019.4
20260831235539 64 2 10.0 21.0 0.00 0.00 0.00 65 1019.4
20260831235037 63 295 11.0 23.0 0.00 0.00 0.00 66 1019.5
20260831234537 63 4 11.0 23.0 0.00 0.00 0.00 66 1019.5
20260831234037 63 11 10.0 23.0 0.00 0.00 0.00 67 1019.6
20260831233537 63 331 9.0 21.0 0.00 0.00 0.00 67 1019.7
20260831233046 62 337 10.0 23.0 0.00 0.00 0.00 68 1020.2
20260831233039 62 25 10.0 23.0 0.00 0.00 0.00 68 1019.9
20260831232042 62 35 8.0 22.0 0.00 0.00 0.00 69 1020.7
20260831232037 62 347 9.0 22.0 0.00 0.00 0.00 69 1020.4
20260831231037 62 2 7.0 18.0 0.00 0.00 0.00 71 1020.8
20260831230538 62 16 8.0 18.0 0.00 0.00 0.00 71 1020.9
20260831230038 61 8 8.0 17.0 0.00 0.00 0.00 71 1021.0
20260831225538 61 3 7.0 17.0 0.00 0.00 0.00 72 1021.1
20260831225043 61 336 6.0 16.0 0.00 0.00 0.00 74 1021.2
20260831225037 61 0 7.0 17.0 0.00 0.00 0.00 73 1021.1
20260831224039 60 15 7.0 14.0 0.00 0.00 0.00 75 1021.3
20260831223542 60 339 8.0 20.0 0.00 0.00 0.00 76 1021.5
20260831223536 60 20 8.0 20.0 0.00 0.00 0.00 75 1021.4
20260831222537 60 36 7.0 19.0 0.00 0.00 0.00 77 1021.5
20260831222038 60 316 6.0 15.0 0.00 0.00 0.00 78 1021.5
20260831221544 59 339 7.0 16.0 0.00 0.00 0.00 79 1021.7
20260831221538 59 335 7.0 15.0 0.00 0.00 0.00 78 1021.5
20260831221208 59 338 5.0 16.0 0.00 0.00 0.00 80 1021.9
20260831220036 58 32 5.0 12.0 0.00 0.00 0.00 81 1021.8
20260831215539 58 335 6.0 14.0 0.00 0.00 0.00 81 1021.8
20260831215037 58 27 6.0 14.0 0.00 0.00 0.00 82 1021.7
20260831214536 58 301 7.0 19.0 0.00 0.00 0.00 83 1021.6
20260831214034 58 342 8.0 19.0 0.00 0.00 0.00 83 1021.6
20260831213537 58 355 7.0 16.0 0.00 0.00 0.00 84 1021.6
20260831213035 57 346 7.0 16.0 0.00 0.00 0.00 84 1021.6
20260831212540 57 326 6.0 12.0 0.00 0.00 0.00 85 1021.6
20260831212535 57 345 7.0 15.0 0.00 0.00 0.00 85 1021.6
20260831211535 57 0 6.0 12.0 0.00 0.00 0.00 85 1021.6
20260831211034 57 8 5.0 12.0 0.00 0.00 0.00 85 1021.6
20260831210037 56 0 5.0 13.0 0.00 0.00 0.00 86 1021.6
20260831205532 56 322 4.0 12.0 0.00 0.00 0.00 86 1021.7
20260831205036 56 345 4.0 14.0 0.00 0.00 0.00 85 1021.7
20260831204533 56 318 4.0 14.0 0.00 0.00 0.00 86 1021.6
20260831204039 57 16 5.0 11.0 0.00 0.00 0.00 86 1021.6
20260831204033 57 2 4.0 12.0 0.00 0.00 0.00 86 1021.6
20260831203030 57 345 5.0 11.0 0.00 0.00 0.00 86 1021.7
20260831202532 57 343 4.0 9.0 0.00 0.00 0.00 85 1021.7
20260831202031 57 352 4.0 9.0 0.00 0.00 0.00 85 1021.8
20260831201531 57 346 3.0 9.0 0.00 0.00 0.00 85 1021.9
20260831201030 57 2 4.0 9.0 0.00 0.00 0.00 85 1021.9
20260831200531 57 353 4.0 10.0 0.00 0.00 0.00 85 1021.9
20260831200030 57 4 4.0 10.0 0.00 0.00 0.00 84 1021.8
20260831195533 58 5 5.0 12.0 0.00 0.00 0.00 84 1021.8
20260831195032 58 19 6.0 14.0 0.00 0.00 0.00 84 1021.9
20260831194528 58 340 7.0 15.0 0.00 0.00 0.00 84 1021.8
20260831194036 58 14 6.0 15.0 0.00 0.00 0.00 84 1021.8
20260831194030 58 10 6.0 15.0 0.00 0.00 0.00 84 1021.8
20260831193529 58 75 6.0 15.0 0.00 0.00 0.00 84 1021.8
20260831193159 58 9 7.0 15.0 0.00 0.00 0.00 84 1021.8
20260831192530 58 338 7.0 15.0 0.00 0.00 0.00 84 1021.7
20260831191529 58 358 8.0 19.0 0.00 0.00 0.00 84 1021.7
20260831191030 58 17 7.0 19.0 0.00 0.00 0.00 85 1021.7
20260831190529 58 339 6.0 15.0 0.00 0.00 0.00 85 1021.8
20260831190030 58 0 6.0 15.0 0.00 0.00 0.00 86 1022.0
20260831185527 58 346 6.0 13.0 0.00 0.00 0.00 86 1022.0
20260831185028 58 349 7.0 18.0 0.00 0.00 0.00 86 1022.0
20260831184527 58 333 7.0 18.0 0.00 0.00 0.00 87 1022.0
20260831184029 58 9 7.0 16.0 0.00 0.00 0.00 87 1022.0
20260831183528 57 343 6.0 13.0 0.00 0.00 0.00 88 1022.1
20260831183027 57 336 5.0 12.0 0.00 0.00 0.00 89 1022.2
20260831182528 57 356 4.0 12.0 0.00 0.00 0.00 89 1022.3
20260831182036 56 6 4.0 13.0 0.00 0.00 0.00 90 1022.3
20260831182027 57 358 5.0 13.0 0.00 0.00 0.00 89 1022.3
20260831181028 56 337 3.0 8.0 0.00 0.00 0.00 90 1022.4
20260831180527 56 353 3.0 7.0 0.00 0.00 0.00 90 1022.5
20260831180028 56 6 3.0 5.0 0.00 0.00 0.00 90 1022.6
20260831175526 55 10 3.0 6.0 0.00 0.00 0.00 90 1022.6
20260831175029 55 355 3.0 8.0 0.00 0.00 0.00 90 1022.7
20260831174527 55 345 3.0 8.0 0.00 0.00 0.00 90 1022.7
20260831174034 55 346 2.0 5.0 0.00 0.00 0.00 90 1022.8
20260831174028 55 347 2.0 5.0 0.00 0.00 0.00 90 1022.7
20260831173028 55 345 2.0 5.0 0.00 0.00 0.00 90 1022.8
20260831172533 54 339 1.0 4.0 0.00 0.00 0.00 90 1023.0
20260831172527 55 345 2.0 8.0 0.00 0.00 0.00 90 1022.9
20260831172024 54 345 2.0 8.0 0.00 0.00 0.00 90 1022.9
20260831171026 54 339 2.0 5.0 0.00 0.00 0.00 90 1023.2
20260831170524 54 338 2.0 5.0 0.00 0.00 0.00 90 1023.2
20260831170025 54 339 2.0 5.0 0.00 0.00 0.00 90 1023.2
20260831165524 54 339 3.0 8.0 0.00 0.00 0.00 90 1023.3
20260831165022 54 338 3.0 8.0 0.00 0.00 0.00 90 1023.4
20260831164524 54 340 2.0 6.0 0.00 0.00 0.00 90 1023.4
20260831164022 54 339 1.0 5.0 0.00 0.00 0.00 90 1023.4
20260831163523 54 338 1.0 5.0 0.00 0.00 0.00 90 1023.5
20260831163024 54 337 1.0 5.0 0.00 0.00 0.00 90 1023.6
20260831162524 54 337 2.0 5.0 0.00 0.00 0.00 90 1023.7
20260831162023 54 338 2.0 5.0 0.00 0.00 0.00 90 1023.8
20260831161522 54 335 2.0 6.0 0.00 0.00 0.00 90 1024.0
20260831161022 53 330 1.0 6.0 0.00 0.00 0.00 90 1024.0
20260831160520 53 337 1.0 5.0 0.00 0.00 0.00 90 1023.9
20260831160020 53 335 1.0 5.0 0.00 0.00 0.00 90 1024.0
20260831155522 53 331 1.0 3.0 0.00 0.00 0.00 90 1024.1
20260831155020 53 331 1.0 3.0 0.00 0.00 0.00 90 1024.1
20260831154522 53 328 1.0 3.0 0.00 0.00 0.00 90 1024.2
20260831154022 53 326 1.0 3.0 0.00 0.00 0.00 89 1024.3
20260831153529 53 326 1.0 3.0 0.00 0.00 0.00 90 1024.4
20260831153522 53 326 1.0 3.0 0.00 0.00 0.00 89 1024.3
20260831152520 53 325 1.0 5.0 0.00 0.00 0.00 90 1024.4
20260831152022 53 325 1.0 5.0 0.00 0.00 0.00 90 1024.4
20260831151521 52 323 1.0 6.0 0.00 0.00 0.00 90 1024.5
20260831151022 52 322 1.0 6.0 0.00 0.00 0.00 90 1024.5
20260831150529 51 206 0.0 0.0 0.00 0.00 0.00 89 1024.6
20260831150521 52 264 0.0 3.0 0.00 0.00 0.00 90 1024.5
20260831150020 51 244 0.0 3.0 0.00 0.00 0.00 90 1024.6
20260831145025 51 206 0.0 0.0 0.00 0.00 0.00 89 1024.7
20260831144024 51 204 0.0 0.0 0.00 0.00 0.00 89 1025.0
20260831144018 51 204 0.0 0.0 0.00 0.00 0.00 89 1024.9
20260831143644 51 204 0.0 0.0 0.00 0.00 0.00 90 1025.0
20260831142527 51 204 0.0 0.0 0.00 0.00 0.00 89 1025.3
20260831142516 51 204 0.0 0.0 0.00 0.00 0.00 90 1025.1
20260831142018 51 204 0.0 0.0 0.00 0.00 0.00 90 1025.2
20260831141017 51 204 0.0 0.0 0.00 0.00 0.00 90 1025.4
20260831140522 51 204 0.0 0.0 0.00 0.00 0.00 90 1025.6
20260831140516 51 204 0.0 0.0 0.00 0.00 0.00 90 1025.5
20260831140031 51 204 0.0 0.0 0.00 0.00 0.00 90 1025.6
20260831140017 51 204 0.0 0.0 0.00 0.00 0.00 90 1025.6
20260831135016 50 204 0.0 0.0 0.00 0.00 0.00 90 1025.7
20260831134519 51 204 0.0 0.0 0.00 0.00 0.00 90 1025.8
20260831134016 50 204 0.0 0.0 0.00 0.00 0.00 89 1025.9
20260831133515 50 204 0.0 0.0 0.00 0.00 0.00 89 1025.9
20260831133017 51 204 0.0 0.0 0.00 0.00 0.00 89 1026.0
20260831132517 51 204 0.0 0.0 0.00 0.00 0.00 89 1026.1
20260831132020 51 204 0.0 0.0 0.00 0.00 0.00 89 1026.3
20260831132013 51 204 0.0 0.0 0.00 0.00 0.00 89 1026.2
20260831131011 51 204 0.0 0.0 0.00 0.00 0.00 89 1026.4
20260831130513 51 204 0.0 0.0 0.00 0.00 0.00 89 1026.4
20260831130013 51 204 0.0 0.0 0.00 0.00 0.00 89 1026.5
20260831125512 50 204 0.0 0.0 0.00 0.00 0.00 89 1026.6
20260831125021 50 204 0.0 0.0 0.00 0.00 0.00 88 1026.7
20260831125013 50 204 0.0 0.0 0.00 0.00 0.00 88 1026.6
20260831124012 51 204 0.0 0.0 0.00 0.00 0.00 88 1026.7
20260831123518 51 204 0.0 0.0 0.00 0.00 0.00 88 1026.9
20260831123511 51 204 0.0 0.0 0.00 0.00 0.00 88 1026.8
20260831122520 51 204 0.0 0.0 0.00 0.00 0.00 88 1026.9
20260831122512 51 204 0.0 0.0 0.00 0.00 0.00 88 1026.9
20260831121512 51 204 0.0 0.0 0.00 0.00 0.00 87 1027.0
20260831121013 51 204 0.0 0.0 0.00 0.00 0.00 87 1026.9
20260831120511 51 204 0.0 0.0 0.00 0.00 0.00 87 1027.0
20260831120013 51 204 0.0 0.0 0.00 0.00 0.00 87 1026.9
20260831115512 51 204 0.0 0.0 0.00 0.00 0.00 87 1026.9
20260831115013 51 204 0.0 0.0 0.00 0.00 0.00 87 1027.0
20260831114511 51 204 0.0 0.0 0.00 0.00 0.00 87 1027.0
20260831114013 51 204 0.0 0.0 0.00 0.00 0.00 86 1027.1
20260831113511 51 204 0.0 0.0 0.00 0.00 0.00 86 1027.1
20260831113012 51 204 0.0 0.0 0.00 0.00 0.00 86 1027.1
20260831112511 52 204 0.0 0.0 0.00 0.00 0.00 86 1027.2
20260831112012 52 204 0.0 0.0 0.00 0.00 0.00 86 1027.1
20260831111511 52 204 0.0 0.0 0.00 0.00 0.00 85 1027.1
20260831111012 52 204 0.0 0.0 0.00 0.00 0.00 85 1027.1
20260831110503 52 204 0.0 0.0 0.00 0.00 0.00 85 1027.1
20260831110005 52 204 0.0 0.0 0.00 0.00 0.00 84 1027.2
20260831105503 52 204 0.0 0.0 0.00 0.00 0.00 84 1027.3
20260831105003 53 204 0.0 0.0 0.00 0.00 0.00 84 1027.3
20260831104504 53 204 0.0 0.0 0.00 0.00 0.00 84 1027.3
20260831104004 53 204 0.0 0.0 0.00 0.00 0.00 84 1027.4
20260831103511 53 204 0.0 0.0 0.00 0.00 0.00 83 1027.4
20260831103505 53 204 0.0 0.0 0.00 0.00 0.00 83 1027.4
20260831103002 53 204 0.0 0.0 0.00 0.00 0.00 83 1027.4
20260831102002 53 204 0.0 0.0 0.00 0.00 0.00 83 1027.5
20260831101502 54 204 0.0 0.0 0.00 0.00 0.00 82 1027.5
20260831101002 54 204 0.0 0.0 0.00 0.00 0.00 82 1027.4
20260831100503 54 204 0.0 0.0 0.00 0.00 0.00 82 1027.4
20260831095959 54 204 0.0 0.0 0.00 0.00 0.00 81 1027.4
20260831095459 54 204 0.0 0.0 0.00 0.00 0.00 81 1027.4
20260831094958 55 204 0.0 0.0 0.00 0.00 0.00 81 1027.4
20260831094506 55 204 0.0 0.0 0.00 0.00 0.00 80 1027.5
20260831094500 55 204 0.0 0.0 0.00 0.00 0.00 80 1027.5
20260831093629 55 204 0.0 0.0 0.00 0.00 0.00 81 1027.6
20260831093505 55 204 0.0 0.0 0.00 0.00 0.00 81 1027.7
20260831093501 55 204 0.0 0.0 0.00 0.00 0.00 80 1027.6
20260831092000 55 204 0.0 0.0 0.00 0.00 0.00 80 1027.6
20260831091502 55 204 0.0 0.0 0.00 0.00 0.00 80 1027.6
20260831091125 56 204 0.0 0.0 0.00 0.00 0.00 80 1027.7
20260831090459 56 204 0.0 0.0 0.00 0.00 0.00 80 1027.7
20260831085500 56 204 0.0 0.0 0.00 0.00 0.00 80 1027.8
20260831085003 56 204 0.0 0.0 0.00 0.00 0.00 80 1027.8
20260831084959 56 204 0.0 0.0 0.00 0.00 0.00 80 1027.8
20260831083958 56 204 0.0 0.0 0.00 0.00 0.00 81 1027.8
20260831083457 56 204 0.0 0.0 0.00 0.00 0.00 81 1027.8
20260831082957 57 204 0.0 0.0 0.00 0.00 0.00 82 1027.8
20260831082457 57 204 0.0 0.0 0.00 0.00 0.00 82 1027.9
20260831082006 57 204 0.0 0.0 0.00 0.00 0.00 82 1027.8
20260831082000 57 204 0.0 0.0 0.00 0.00 0.00 82 1027.9
20260831080958 57 204 0.0 0.0 0.00 0.00 0.00 82 1027.9
20260831080458 57 204 0.0 0.0 0.00 0.00 0.00 83 1027.9
20260831075957 57 204 0.0 0.0 0.00 0.00 0.00 83 1027.9
20260831075458 57 204 0.0 0.0 0.00 0.00 0.00 83 1027.8
20260831075000 57 204 0.0 0.0 0.00 0.00 0.00 83 1027.9
20260831074502 58 204 0.0 0.0 0.00 0.00 0.00 82 1028.0
20260831074457 57 204 0.0 0.0 0.00 0.00 0.00 82 1027.9
20260831073457 58 204 0.0 0.0 0.00 0.00 0.00 82 1027.9
20260831072956 58 204 0.0 2.0 0.00 0.00 0.00 81 1027.9
20260831072623 58 204 1.0 3.0 0.00 0.00 0.00 80 1028.0
20260831072610 58 204 0.0 3.0 0.00 0.00 0.00 81 1028.0
20260831071500 58 204 1.0 3.0 0.00 0.00 0.00 79 1028.0
20260831071454 58 205 1.0 3.0 0.00 0.00 0.00 79 1028.0
20260831070456 59 204 1.0 4.0 0.00 0.00 0.00 78 1028.0
20260831070000 59 208 1.0 4.0 0.00 0.00 0.00 76 1028.1
20260831065954 59 206 1.0 4.0 0.00 0.00 0.00 77 1028.1
20260831065456 59 208 1.0 4.0 0.00 0.00 0.00 77 1028.1
20260831064456 60 213 1.0 4.0 0.00 0.00 0.00 76 1028.2
20260831063956 60 217 1.0 4.0 0.00 0.00 0.00 76 1028.2
20260831063456 59 212 1.0 3.0 0.00 0.00 0.00 77 1028.2
20260831062954 59 214 1.0 3.0 0.00 0.00 0.00 77 1028.2
20260831062450 59 215 1.0 4.0 0.00 0.00 0.00 77 1028.3
20260831061952 59 215 1.0 4.0 0.00 0.00 0.00 77 1028.4
20260831061451 59 220 1.0 3.0 0.00 0.00 0.00 77 1028.4
20260831060952 59 207 1.0 3.0 0.00 0.00 0.00 77 1028.4
20260831060448 58 185 2.0 5.0 0.00 0.00 0.00 77 1028.5
20260831055952 58 193 2.0 8.0 0.00 0.00 0.00 77 1028.6
20260831055448 58 202 2.0 8.0 0.00 0.00 0.00 76 1028.6
20260831054950 58 202 2.0 6.0 0.00 0.00 0.00 76 1028.7
20260831054448 58 239 2.0 5.0 0.00 0.00 0.00 76 1028.8
20260831053948 58 219 2.0 7.0 0.00 0.00 0.00 78 1028.8
20260831053446 58 195 2.0 7.0 0.00 0.00 0.00 78 1028.8
20260831052946 58 200 2.0 5.0 0.00 0.00 0.00 78 1028.8
20260831052444 58 201 2.0 5.0 0.00 0.00 0.00 78 1028.9
20260831051943 58 192 2.0 5.0 0.00 0.00 0.00 78 1028.9
20260831051442 58 161 2.0 4.0 0.00 0.00 0.00 78 1029.0
20260831050944 58 210 2.0 4.0 0.00 0.00 0.00 78 1029.0
20260831050444 58 213 2.0 4.0 0.00 0.00 0.00 78 1029.1
20260831045943 58 224 1.0 4.0 0.00 0.00 0.00 79 1029.2
20260831045442 57 224 2.0 6.0 0.00 0.00 0.00 80 1029.3
20260831044944 57 224 2.0 6.0 0.00 0.00 0.00 79 1029.5
20260831044443 57 214 2.0 7.0 0.00 0.00 0.00 79 1029.6
20260831043944 57 224 1.0 7.0 0.00 0.00 0.00 80 1029.7
20260831043441 57 194 1.0 5.0 0.00 0.00 0.00 80 1029.7
20260831042949 56 196 2.0 5.0 0.00 0.00 0.00 81 1029.9
20260831042945 56 191 2.0 5.0 0.00 0.00 0.00 81 1029.8